TimeMDT,TemperatureF,Dew PointF,Humidity,Sea Level PressureIn,VisibilityMPH,Wind Direction,Wind SpeedMPH,Gust SpeedMPH,PrecipitationIn,Events,Conditions,WindDirDegrees,DateUTC
12:53 AM,28.0,17.1,63,30.65,10.0,SSW,9.2,-,N/A,,Clear,200,2013-05-02 06:53:00
1:53 AM,30.9,17.1,57,30.63,10.0,SSW,12.7,-,N/A,,Clear,200,2013-05-02 07:53:00
2:53 AM,32.0,18.0,56,30.61,10.0,SSW,13.8,-,N/A,,Clear,200,2013-05-02 08:53:00
3:53 AM,32.0,18.0,56,30.61,10.0,SSW,12.7,-,N/A,,Clear,200,2013-05-02 09:53:00
4:53 AM,30.9,18.0,59,30.62,10.0,SSW,13.8,-,N/A,,Clear,200,2013-05-02 10:53:00
5:53 AM,30.9,18.0,59,30.60,10.0,SSW,13.8,-,N/A,,Clear,200,2013-05-02 11:53:00
6:53 AM,33.1,19.0,56,30.60,10.0,SSW,11.5,-,N/A,,Clear,200,2013-05-02 12:53:00
7:53 AM,39.9,19.9,45,30.58,10.0,SSW,13.8,-,N/A,,Clear,200,2013-05-02 13:53:00
8:53 AM,45.0,21.9,40,30.58,10.0,SSW,12.7,-,N/A,,Clear,200,2013-05-02 14:53:00
9:53 AM,50.0,19.0,29,30.54,10.0,SW,16.1,21.9,N/A,,Clear,230,2013-05-02 15:53:00
10:53 AM,54.0,18.0,24,30.53,10.0,SW,13.8,19.6,N/A,,Clear,230,2013-05-02 16:53:00
11:53 AM,55.9,18.0,23,30.49,10.0,WSW,13.8,20.7,N/A,,Clear,240,2013-05-02 17:53:00
12:53 PM,59.0,19.0,21,30.45,10.0,SW,16.1,19.6,N/A,,Clear,220,2013-05-02 18:53:00
1:53 PM,61.0,19.0,20,30.41,10.0,SSW,13.8,26.5,N/A,,Clear,200,2013-05-02 19:53:00
2:53 PM,64.9,19.9,18,30.35,10.0,SW,16.1,25.3,N/A,,Clear,230,2013-05-02 20:53:00
3:53 PM,64.0,17.1,16,30.32,10.0,SW,19.6,27.6,N/A,,Clear,230,2013-05-02 21:53:00
4:53 PM,64.9,16.0,15,30.29,10.0,WSW,23.0,28.8,N/A,,Clear,240,2013-05-02 22:53:00
5:53 PM,64.0,17.1,16,30.28,10.0,West,17.3,-,N/A,,Clear,260,2013-05-02 23:53:00
6:53 PM,63.0,19.0,18,30.27,10.0,WSW,13.8,-,N/A,,Clear,240,2013-05-03 00:53:00
7:53 PM,57.9,21.9,25,30.26,10.0,WSW,11.5,-,N/A,,Clear,240,2013-05-03 01:53:00
8:53 PM,46.9,19.9,34,30.28,10.0,WSW,10.4,-,N/A,,Clear,250,2013-05-03 02:53:00
9:53 PM,46.0,18.0,33,30.28,10.0,WSW,10.4,-,N/A,,Clear,250,2013-05-03 03:53:00
10:53 PM,45.0,17.1,33,30.26,10.0,West,5.8,-,N/A,,Clear,270,2013-05-03 04:53:00
11:53 PM,41.0,19.9,43,30.25,10.0,WSW,5.8,-,N/A,,Clear,240,2013-05-03 05:53:00